METEOR 2-17 DEB

Satellite information

Favourite Embed

Satellite Type and Status

DEBRISIN ORBIT

Key statistics

Satellite METEOR 2-17 DEB at a glance.

Uptime

13777

Days in orbit

Revolutions

≈ 14.0

Per day

Orbit

LEO

Low Earth Orbit

Inclination

82.5

Latest

Satellite identification and parameters

Extended collection of information and parameters for METEOR 2-17 DEB.

Object identification

Identified? True

Debris? True

Object name: METEOR 2-17 DEB

International designator: 1988-005AN

Object number (NORAD): 38285

Object ID (CCSDS): 38285

Country: COMMONWEALTH OF INDEPENDENT STATES (CIS)

Current information (Y/N): Y

RCS size: SMALL

Orbital parameters

Period: 102.986 minutes

Inclination: 82.545 deg

SMA: 7277.993 km

Apoapsis: 910.099 km

Periapsis: 889.617 km

RAAN: 126.7074 deg

Eccentricy: 0.0014071

Argument of periapsis: 258.4859 deg

Mean anomaly: 101.4729 deg

Mean motion: 13.98251542 rev/day

Mean motion (dot): 0.0000321 rev/day2

B* drag term: 0.0022399352 1/REarth

Two-line elements (TLE)

Creation date: Oct. 16, 2025, 2:37 a.m.

Reference frame: TEME

Reference center: EARTH

Epoch: Oct. 15, 2025, 7:10 p.m. UTC

TLE line 0: 0 METEOR 2-17 DEB

TLE line 1: 1 38285U 88005AN 25288.79870734 .00003210 00000-0 22399-2 0 9990

TLE line 2: 2 38285 82.5450 126.7074 0014071 258.4859 101.4729 13.98251542176641

Live tracking on map

Real-time ground track for satellite METEOR 2-17 DEB.

In-orbit conjunctions

A list of the most updated potential collisions computed for object METEOR 2-17 DEB.

Target Orbit TCA Probability of collision Miss distance Type
THORAD AGENA D DEB SSO 2025-09-11 18:52:13 0.0001565562 85.0 (m) DEBRIS
COSMOS 1275 DEB LEO 2025-08-18 09:14:23 0.00019383 191.0 (m) DEBRIS
LANDSAT 2 SSO 2025-04-01 15:39:31 0.0002798596 53.0 (m) PAYLOAD

Associated space launch

Second generation soviet meteorological satellite

METEOR 2-17 DEB was lifted into orbit during the mission ‘Tsiklon-3 | Meteor-2 17’, on board a Tsiklon-3 space rocket.

The launch took place on Jan. 30, 1988, 10:59 a.m. from 32/1.

For more information about the launch, click the button.

Launch to space Tsiklon-3 | Meteor-2 17
Tsiklon-3 | Meteor-2 17

Agency: N/A

Status: Launch Successful

Launch date: Jan. 30, 1988, 10:59 a.m. UTC

Rocket: Tsiklon-3

Launch pad: 32/1

Location: Plesetsk Cosmodrome, Russian Federation

...

Latest news about this satellite

There are no fresh news available about this satellite. Check back as we update our databases every day.


Newsletter sign-up

Weekly statistics, charts and insights to help you stay on top of the space industry.